Regional Weather Roundup
Issued by NWS

Home | Current Version | Previous Version | Graphics & Text | Print | Product List | Glossary On
Versions: 1 2 3 4 5 6 7 8 9 10 11 12 13 14 15 16 17 18 19 20 21 22 23 24 25 26 27
000
ASUS45 KPSR 301810
RWRAZ

ARIZONA HOURLY REGIONAL WEATHER ROUNDUP
NATIONAL WEATHER SERVICE PHOENIX AZ
1100 AM MST MON MAY 30 2016

NOTE: FAIR INDICATES FEW OR NO CLOUDS BELOW 12,000 FEET WITH NO
SIGNIFICANT WEATHER AND/OR OBSTRUCTIONS TO VISIBILITY.

AZZ001>003-036-301900-
NORTHWEST ARIZONA

CITY           SKY/WX    TMP DP  RH WIND       PRES   REMARKS
BULLHEAD CITY  MOSUNNY   86  30  13 MISG      29.88F
KINGMAN        MOSUNNY   84  13   7 CALM      30.00F
6HR MIN TEMP:  53; 6HR MAX TEMP:  84;

$$

AZZ004>008-015-016-018-301900-
NORTH CENTRAL ARIZONA

CITY           SKY/WX    TMP DP  RH WIND       PRES   REMARKS
GRAND CANYON   MOSUNNY   71  21  15 VRB6G17   30.15F
6HR MIN TEMP:  31; 6HR MAX TEMP:  72;

WILLIAMS       MOSUNNY   66  16  14 W5        30.23F
PRESCOTT       SUNNY     74  21  13 VRB6G22   30.07F
6HR MIN TEMP:  45; 6HR MAX TEMP:  74;

FLAGSTAFF      MOSUNNY   64  22  20 VRB3      30.18F
6HR MIN TEMP:  34; 6HR MAX TEMP:  65;

PAYSON         SUNNY     75  25  15 S12G18    30.12S
PAGE           SUNNY     81  28  14 MISG      30.00F
6HR MIN TEMP:  62; 6HR MAX TEMP:  81;

$$

AZZ009>014-017-301900-
NORTHEAST ARIZONA

CITY           SKY/WX    TMP DP  RH WIND       PRES   REMARKS
WINSLOW        MOSUNNY   79  27  14 SE10G18   30.07F
6HR MIN TEMP:  46; 6HR MAX TEMP:  79;

SAINT JOHNS    MOSUNNY   74  23  15 MISG      30.10F
6HR MIN TEMP:  43; 6HR MAX TEMP:  76;

WINDOW ROCK    SUNNY     72  19  13 W10       30.17F
6HR MIN TEMP:  37; 6HR MAX TEMP:  74;

SHOW LOW       PTSUNNY   68  27  21 SW10      30.15F
$$

AZZ023-301900-
GREATER PHOENIX AREA

CITY           SKY/WX    TMP DP  RH WIND       PRES   REMARKS
PHOENIX        MOSUNNY   85  15   7 VRB5      29.89F
6HR MIN TEMP:  70; 6HR MAX TEMP:  85;

BUCKEYE        SUNNY     82  25  12 S5        29.92F
GLENDALE       MOSUNNY   84   7   5 E7        29.92F
LUKE AFB       SUNNY     85  11   6 VRB3      29.89F
6HR MIN TEMP:  62; 6HR MAX TEMP:  85;

DEER VALLEY    SUNNY     83  15   8 VRB6      29.91F
6HR MIN TEMP:  61; 6HR MAX TEMP:  84;

SCOTTSDALE     SUNNY     83  14   7 SE6       29.93F
6HR MIN TEMP:  66; 6HR MAX TEMP:  85;

MESA-FALCON    SUNNY    N/A N/A N/A SE6       29.89F
MESA-GATEWAY   MOSUNNY   82  21  10 W9        29.92F
CHANDLER       SUNNY     84  16   8 S6        29.91F
$$

AZZ027-028-301900-
SOUTHWEST MARICOPA COUNTY AND PINAL COUNTY

CITY           SKY/WX    TMP DP  RH WIND       PRES   REMARKS
CASA GRANDE    SUNNY     84  27  12 SW8       29.93F
6HR MIN TEMP:  59; 6HR MAX TEMP:  84;

GILA BEND      FAIR      86  24  10 VRB1      29.88F
6HR MIN TEMP:  66; 6HR MAX TEMP:  86;

$$

AZZ503-504-507>509-301900-
SOUTHEAST ARIZONA

CITY           SKY/WX    TMP DP  RH WIND       PRES   REMARKS
TUCSON         SUNNY     87  33  14 SW6G16    29.97F
6HR MIN TEMP:  67; 6HR MAX TEMP:  87;

DAVIS-MONTHAN  SUNNY     85  35  16 SW10      29.96F
6HR MIN TEMP:  62; 6HR MAX TEMP:  85;

RYAN FIELD     SUNNY     86  32  14 SW3       29.95
NOGALES        SUNNY     83  38  20 SW10      30.03F
6HR MIN TEMP:  59; 6HR MAX TEMP:  83;

SIERRA VISTA   MOSUNNY   80  37  21 SW15G22   30.07F
6HR MIN TEMP:  62; 6HR MAX TEMP:  80;

DOUGLAS        MOSUNNY   84  44  24 S14G28    30.03F
6HR MIN TEMP:  59; 6HR MAX TEMP:  85;

SAFFORD        SUNNY     86  34  15 S9        29.95F
6HR MIN TEMP:  63; 6HR MAX TEMP:  87;

$$

AZZ020-021-025-026-031-301900-
SOUTHWEST ARIZONA

CITY           SKY/WX    TMP DP  RH WIND       PRES   REMARKS
YUMA           SUNNY     86  50  28 VRB6      29.87F
6HR MIN TEMP:  66; 6HR MAX TEMP:  86;

$$

CAZ031-033-041-043-047-048-061-301900-
SOUTHERN CALIFORNIA

CITY           SKY/WX    TMP DP  RH WIND       PRES   REMARKS
DOWNTOWN L.A.  CLOUDY    66  54  65 CALM      30.00S
6HR MIN TEMP:  59; 6HR MAX TEMP:  67;

L.A. AIRPORT   CLOUDY    64  54  69 W7        30.01S
6HR MIN TEMP:  59; 6HR MAX TEMP:  64;

SAN DIEGO      PTSUNNY   65  56  72 NW3       30.02S
6HR MIN TEMP:  62; 6HR MAX TEMP:  65; 6HR PCP:  0.01;

BURBANK        PTSUNNY   65  53  65 S5        30.00S
6HR MIN TEMP:  54; 6HR MAX TEMP:  65;

ONTARIO        CLOUDY    65  52  62 VRB5      30.00F
6HR MIN TEMP:  57; 6HR MAX TEMP:  66;

RIVERSIDE      CLOUDY    65  52  62 W3        30.00F
6HR MIN TEMP:  59; 6HR MAX TEMP:  65;

PALM SPRINGS   SUNNY     86  47  25 CALM      29.88F
6HR MIN TEMP:  67; 6HR MAX TEMP:  86;

EL CENTRO NAS  SUNNY     86  49  27 VRB5      29.87F
6HR MIN TEMP:  64; 6HR MAX TEMP:  86;

IMPERIAL       SUNNY     85  52  32 VRB5      29.85F
6HR MIN TEMP:  67; 6HR MAX TEMP:  85;

BLYTHE         SUNNY     86  45  23 SE7       29.87S
6HR MIN TEMP:  67; 6HR MAX TEMP:  86;

NEEDLES        SUNNY     90  32  12 CALM      29.88F
6HR MIN TEMP:  67; 6HR MAX TEMP:  90;

$$

NVZ020-UTZ003-301900-
SOUTHERN NEVADA-UTAH

CITY           SKY/WX    TMP DP  RH WIND       PRES   REMARKS
LAS VEGAS      MOSUNNY   86  29  12 E6        29.90F
6HR MIN TEMP:  69; 6HR MAX TEMP:  87;

SALT LAKE CITY MOSUNNY   74  39  28 CALM      30.09F
6HR MIN TEMP:  56; 6HR MAX TEMP:  74;

$$

NMZ009-TXZ055-301900-
NEW MEXICO-WEST TEXAS

CITY           SKY/WX    TMP DP  RH WIND       PRES   REMARKS
ALBUQUERQUE    PTSUNNY   76  22  13 W7        30.10F
6HR MIN TEMP:  56; 6HR MAX TEMP:  76;

EL PASO        MOSUNNY   88  41  19 W15       30.02F
6HR MIN TEMP:  70; 6HR MAX TEMP:  89; 6HR PCP: TRACE;

$$


........................KEY........................
SKY/WX - SKY CONDITION/WEATHER
TMP    - TEMPERATURE IN FAHRENHEIT
DP     - DEW POINT IN FAHRENHEIT
RH     - RELATIVE HUMIDITY IN PERCENT
WIND   - DIRECTION AND SPEED IN MILES PER HOUR (MPH)
VRB    - VARIABLE WIND DIRECTION
PRES   - MEAN SEA LEVEL PRESSURE IN INCHES OF MERCURY
         F - FALLING PRESSURE   R - RISING PRESSURE
         S - STEADY PRESSURE
VSB    - VISIBILITY IN MILES
HX     - HEAT INDEX IN FAHRENHEIT
WCI    - WIND CHILL INDEX IN FAHRENHEIT
TC     - TEMPERATURE IN CELSIUS WHICH IS ALSO KNOWN AS
         TEMPERATURE IN CENTIGRADE
AFB    - AIR FORCE BASE
         LUKE AFB IS LUKE AIR FORCE BASE
         DAVIS-MONTHAN IS DAVIS-MONTHAN AIR FORCE BASE
NAS    - NAVAL AIR STATION
         EL CENTRO NAS IS EL CENTRO NAVAL AIR STATION
N/A    - NOT AVAILABLE





USA.gov is the U.S. government's official web portal to all federal, state and local government web resources and services.